FW4751 Weather Reports


Display with metric or nautical units.
time (UTC)temp
F
wind
direction
speed
MPH
gust
MPH
rain 1hr
in
rain 24hr
in
rain mn
in
humidity
%
barometer
mb
20260503020504 60 338 2.0 8.0 0.00 0.00 0.00 70 1011.4
20260503020005 60 338 2.0 5.0 0.00 0.00 0.00 69 1011.4
20260503015505 60 338 2.0 7.0 0.00 0.00 0.00 69 1011.4
20260503015005 60 338 2.0 4.0 0.00 0.00 0.00 69 1011.3
20260503014505 61 338 2.0 7.0 0.00 0.00 0.00 69 1011.4
20260503014024 61 338 3.0 9.0 0.00 0.00 0.00 69 1011.4
20260503013504 61 338 3.0 8.0 0.00 0.00 0.00 68 1011.4
20260503013004 61 338 2.0 4.0 0.00 0.00 0.00 69 1011.4
20260503012605 62 338 2.0 7.0 0.00 0.00 0.00 68 1011.4
20260503012004 62 338 2.0 7.0 0.00 0.00 0.00 68 1011.4
20260503011504 62 338 3.0 7.0 0.00 0.00 0.00 68 1011.3
20260503011004 63 338 3.0 7.0 0.00 0.00 0.00 67 1011.4
20260503010504 63 315 2.0 6.0 0.00 0.00 0.00 66 1011.3
20260503010005 63 338 2.0 6.0 0.00 0.00 0.00 66 1011.3
20260503005504 64 338 3.0 6.0 0.00 0.00 0.00 66 1011.3
20260503005004 64 338 2.0 6.0 0.00 0.00 0.00 66 1011.3
20260503004524 64 45 3.0 8.0 0.00 0.00 0.00 66 1011.5
20260503004004 64 338 3.0 8.0 0.00 0.00 0.00 66 1011.2
20260503003504 64 338 3.0 9.0 0.00 0.00 0.00 66 1011.3
20260503003044 64 0 3.0 8.0 0.00 0.00 0.00 66 1011.4
20260503002524 64 45 3.0 7.0 0.00 0.00 0.00 65 1011.3
20260503002004 64 23 3.0 9.0 0.00 0.00 0.00 66 1011.5
20260503001504 64 338 4.0 9.0 0.00 0.00 0.00 65 1011.3
20260503001024 65 0 3.0 9.0 0.00 0.00 0.00 66 1011.5
20260503000504 65 45 3.0 7.0 0.00 0.00 0.00 65 1011.4
20260503000004 64 338 4.0 9.0 0.00 0.00 0.00 65 1011.5
20260502235504 65 0 5.0 13.0 0.00 0.00 0.00 65 1011.5
20260502235004 65 338 4.0 9.0 0.00 0.00 0.00 64 1011.5
20260502234504 65 45 3.0 9.0 0.00 0.00 0.00 64 1011.4
20260502234005 65 338 2.0 6.0 0.00 0.00 0.00 65 1011.6
20260502233504 65 45 3.0 7.0 0.00 0.00 0.00 65 1011.5
20260502233004 65 0 3.0 7.0 0.00 0.00 0.00 66 1011.7
20260502232505 64 0 4.0 9.0 0.00 0.00 0.00 66 1011.7
20260502232005 64 45 4.0 8.0 0.00 0.00 0.00 66 1011.7
20260502231504 65 338 4.0 10.0 0.00 0.00 0.00 66 1011.8
20260502231005 65 338 3.0 9.0 0.00 0.00 0.00 66 1011.8
20260502230504 65 45 3.0 8.0 0.00 0.00 0.00 66 1012.0
20260502230004 65 338 4.0 9.0 0.00 0.00 0.00 66 1012.2
20260502225504 64 45 3.0 9.0 0.00 0.00 0.00 67 1012.2
20260502225004 64 45 5.0 9.0 0.00 0.00 0.00 66 1012.2
20260502224504 64 45 4.0 9.0 0.00 0.00 0.00 67 1012.3
20260502224004 64 45 3.0 6.0 0.00 0.00 0.00 67 1012.3
20260502223504 64 0 3.0 9.0 0.00 0.00 0.00 67 1012.4
20260502223024 64 45 3.0 7.0 0.00 0.00 0.00 67 1012.6
20260502222504 64 45 4.0 9.0 0.00 0.00 0.00 67 1012.8
20260502222004 64 45 4.0 9.0 0.00 0.00 0.00 66 1012.9
20260502221504 64 45 3.0 9.0 0.00 0.00 0.00 66 1012.9
20260502221004 64 45 4.0 8.0 0.00 0.00 0.00 66 1013.1
20260502220504 65 45 3.0 9.0 0.00 0.00 0.00 66 1013.0
20260502220004 65 45 4.0 10.0 0.00 0.00 0.00 65 1013.1
20260502215504 66 45 3.0 7.0 0.00 0.00 0.00 63 1013.1
20260502215004 67 45 4.0 8.0 0.00 0.00 0.00 62 1013.3
20260502214504 68 45 4.0 10.0 0.00 0.00 0.00 62 1013.2
20260502214024 69 45 3.0 6.0 0.00 0.00 0.00 60 1013.3
20260502213504 70 338 2.0 6.0 0.00 0.00 0.00 59 1013.3
20260502213004 70 338 2.0 4.0 0.00 0.00 0.00 58 1013.3
20260502212504 70 225 1.0 3.0 0.00 0.00 0.00 59 1013.3
20260502212004 70 315 2.0 4.0 0.00 0.00 0.00 59 1013.4
20260502211504 70 315 2.0 6.0 0.00 0.00 0.00 60 1013.4
20260502211024 69 225 2.0 4.0 0.00 0.00 0.00 61 1013.4
20260502210504 69 45 2.0 6.0 0.00 0.00 0.00 60 1013.4
20260502210004 69 338 2.0 6.0 0.00 0.00 0.00 60 1013.5
20260502205504 70 225 2.0 4.0 0.00 0.00 0.00 60 1013.6
20260502205003 69 338 2.0 6.0 0.00 0.00 0.00 61 1013.9
20260502204504 69 315 2.0 5.0 0.00 0.00 0.00 61 1013.8
20260502204004 69 338 3.0 6.0 0.00 0.00 0.00 61 1013.8
20260502203504 69 338 2.0 6.0 0.00 0.00 0.00 62 1014.0
20260502203004 68 248 2.0 6.0 0.00 0.00 0.00 63 1014.0
20260502202503 68 225 3.0 8.0 0.00 0.00 0.00 62 1014.0
20260502202004 68 225 3.0 6.0 0.00 0.00 0.00 63 1014.0
20260502201503 68 338 2.0 6.0 0.00 0.00 0.00 63 1014.1
20260502201004 68 225 4.0 8.0 0.00 0.00 0.00 63 1014.2
20260502200504 68 315 2.0 6.0 0.00 0.00 0.00 63 1014.3
20260502200004 67 315 4.0 8.0 0.00 0.00 0.00 63 1014.5
20260502195504 67 315 4.0 8.0 0.00 0.00 0.00 64 1014.6
20260502195004 67 315 3.0 9.0 0.00 0.00 0.00 63 1014.5
20260502194504 67 293 2.0 5.0 0.00 0.00 0.00 66 1014.5
20260502194024 66 225 3.0 7.0 0.00 0.00 0.00 66 1014.6
20260502193503 66 248 3.0 9.0 0.00 0.00 0.00 66 1014.5
20260502193003 66 225 2.0 7.0 0.00 0.00 0.00 67 1014.6
20260502192503 65 293 3.0 8.0 0.00 0.00 0.00 67 1014.6
20260502192004 65 225 4.0 12.0 0.00 0.00 0.00 67 1014.5
20260502191503 64 248 3.0 7.0 0.00 0.00 0.00 68 1014.6
20260502191004 64 248 3.0 7.0 0.00 0.00 0.00 67 1014.7
20260502190504 65 248 3.0 7.0 0.00 0.00 0.00 67 1014.6
20260502190004 64 315 2.0 9.0 0.00 0.00 0.00 68 1014.8
20260502185503 64 315 3.0 7.0 0.00 0.00 0.00 69 1014.7
20260502185004 64 315 2.0 6.0 0.00 0.00 0.00 68 1014.8
20260502184504 64 293 3.0 8.0 0.00 0.00 0.00 68 1014.8
20260502184003 64 293 2.0 6.0 0.00 0.00 0.00 68 1014.8
20260502183504 64 225 3.0 8.0 0.00 0.00 0.00 68 1014.7
20260502183023 64 270 2.0 7.0 0.00 0.00 0.00 68 1014.7
20260502182003 64 293 2.0 6.0 0.00 0.00 0.00 69 1014.6
20260502181524 63 315 2.0 6.0 0.00 0.00 0.00 69 1014.6
20260502181004 63 315 2.0 6.0 0.00 0.00 0.00 71 1014.7
20260502180504 62 225 2.0 4.0 0.00 0.00 0.00 72 1014.7
20260502170504 59 293 2.0 5.0 0.00 0.00 0.00 78 1014.7
20260502164003 58 248 2.0 5.0 0.00 0.00 0.00 79 1014.7
20260502163523 58 248 2.0 5.0 0.00 0.00 0.00 79 1014.7
20260502163003 58 225 2.0 5.0 0.00 0.00 0.00 79 1014.6
20260502162523 57 293 2.0 8.0 0.00 0.00 0.00 80 1014.6
20260502162003 57 270 2.0 8.0 0.00 0.00 0.00 80 1014.6
20260502161504 57 225 2.0 7.0 0.00 0.00 0.00 80 1014.6
20260502161003 57 248 2.0 5.0 0.00 0.00 0.00 79 1014.6
20260502160503 57 225 2.0 6.0 0.00 0.00 0.00 79 1014.6
20260502152003 57 270 1.0 5.0 0.00 0.00 0.00 80 1014.0
20260502151503 57 270 1.0 5.0 0.00 0.00 0.00 80 1014.1
20260502151003 57 270 2.0 5.0 0.00 0.00 0.00 81 1014.0
20260502150503 57 248 1.0 3.0 0.00 0.00 0.00 81 1014.0
20260502130503 56 270 1.0 3.0 0.00 0.00 0.00 83 1013.2
20260502123505 56 248 1.0 2.0 0.00 0.00 0.00 83 1013.1
20260502123004 56 225 1.0 3.0 0.00 0.00 0.00 83 1013.0
20260502122505 56 248 1.0 4.0 0.00 0.00 0.00 84 1013.0
20260502122005 56 0.0 2.0 0.00 0.00 0.00 84 1012.9
20260502121505 56 225 1.0 3.0 0.00 0.00 0.00 84 1013.1
20260502121005 56 225 1.0 3.0 0.00 0.00 0.00 84 1013.0
20260502120504 56 0.0 1.0 0.00 0.00 0.00 84 1013.1
20260502115505 56 338 1.0 3.0 0.00 0.00 0.00 84 1013.1
20260502115045 56 315 1.0 2.0 0.00 0.00 0.00 84 1013.1
20260502114005 56 0.0 2.0 0.00 0.00 0.00 83 1013.1
20260502113504 56 0 1.0 3.0 0.00 0.00 0.00 83 1013.2
20260502113004 56 338 1.0 3.0 0.00 0.00 0.00 83 1013.1
20260502112530 56 315 1.0 3.0 0.00 0.00 0.00 83 1013.1
20260502112005 56 338 1.0 3.0 0.00 0.00 0.00 83 1013.1
20260502111524 56 315 1.0 2.0 0.00 0.00 0.00 84 1013.0
20260502111005 56 338 1.0 2.0 0.00 0.00 0.00 84 1013.1
20260502110504 56 338 1.0 2.0 0.00 0.00 0.00 84 1013.2
20260502110005 56 0.0 1.0 0.00 0.00 0.00 84 1013.1
20260502105504 56 0.0 1.0 0.00 0.00 0.00 84 1013.2
20260502105004 56 0.0 1.0 0.00 0.00 0.00 85 1013.3
20260502104524 56 0.0 1.0 0.00 0.00 0.00 85 1013.1
20260502104004 56 293 1.0 2.0 0.00 0.00 0.00 85 1013.2
20260502103504 56 315 1.0 2.0 0.00 0.00 0.00 85 1013.2
20260502103024 56 315 1.0 2.0 0.00 0.00 0.00 86 1013.3
20260502102505 56 315 1.0 2.0 0.00 0.00 0.00 86 1013.4
20260502102004 56 0.0 3.0 0.00 0.00 0.00 86 1013.2
20260502101504 56 0.0 1.0 0.00 0.00 0.00 86 1013.3
20260502101004 56 293 1.0 3.0 0.00 0.00 0.00 86 1013.4
20260502100505 56 315 1.0 3.0 0.00 0.00 0.00 87 1013.4
20260502091504 56 0.0 2.0 0.00 0.00 0.00 89 1013.9
20260502091004 56 225 1.0 2.0 0.00 0.00 0.00 89 1013.8
20260502090504 55 0.0 2.0 0.00 0.00 0.00 89 1013.9
20260502071504 53 0.0 1.0 0.00 0.00 0.00 87 1014.2
20260502071004 53 0.0 1.0 0.00 0.00 0.00 87 1014.1
20260502070504 53 0.0 1.0 0.00 0.00 0.00 87 1014.3
20260502070005 53 0.0 1.0 0.00 0.00 0.00 87 1014.3
20260502065504 53 0.0 1.0 0.00 0.00 0.00 87 1014.3
20260502065004 53 0.0 1.0 0.00 0.00 0.00 87 1014.3
20260502064504 53 0.0 1.0 0.00 0.00 0.00 87 1014.3
20260502064004 53 0.0 1.0 0.00 0.00 0.00 87 1014.3
20260502063524 53 0.0 1.0 0.00 0.00 0.00 86 1014.3
20260502063004 53 0.0 1.0 0.00 0.00 0.00 86 1014.4
20260502062524 53 0.0 1.0 0.00 0.00 0.00 86 1014.3
20260502062003 53 0.0 1.0 0.00 0.00 0.00 86 1014.5
20260502061524 54 0.0 1.0 0.00 0.00 0.00 85 1014.4
20260502061004 54 0.0 1.0 0.00 0.00 0.00 85 1014.3
20260502060504 54 0.0 1.0 0.00 0.00 0.00 85 1014.3
20260502060004 54 0.0 1.0 0.00 0.00 0.00 84 1014.4
20260502055503 54 0.0 1.0 0.00 0.00 0.00 84 1014.4
20260502055009 54 0.0 1.0 0.00 0.00 0.00 84 1014.5
20260502054504 54 0.0 1.0 0.00 0.00 0.00 84 1014.5
20260502054004 54 0.0 1.0 0.00 0.00 0.00 84 1014.5
20260502053503 55 0.0 2.0 0.00 0.00 0.00 84 1014.6
20260502053004 55 0 1.0 2.0 0.00 0.00 0.00 84 1014.5
20260502052524 55 0 1.0 2.0 0.00 0.00 0.00 84 1014.5
20260502052044 55 45 1.0 2.0 0.00 0.00 0.00 84 1014.5
20260502051504 55 0.0 1.0 0.00 0.00 0.00 84 1014.5
20260502051004 55 0.0 1.0 0.00 0.00 0.00 84 1014.4
20260502050504 55 0.0 2.0 0.00 0.00 0.00 83 1014.5
20260502045504 55 0.0 2.0 0.00 0.00 0.00 83 1014.4
20260502045024 56 45 1.0 2.0 0.00 0.00 0.00 83 1014.3
20260502044504 56 45 1.0 2.0 0.00 0.00 0.00 83 1014.4
20260502044004 56 45 1.0 3.0 0.00 0.00 0.00 83 1014.2
20260502043503 56 45 2.0 4.0 0.00 0.00 0.00 82 1014.2
20260502043003 56 45 1.0 3.0 0.00 0.00 0.00 82 1014.1
20260502042504 56 45 1.0 3.0 0.00 0.00 0.00 82 1014.0
20260502042003 56 45 2.0 4.0 0.00 0.00 0.00 81 1014.0
20260502041503 56 45 1.0 3.0 0.00 0.00 0.00 81 1014.0
20260502041003 57 45 1.0 4.0 0.00 0.00 0.00 81 1013.9
20260502040504 57 45 1.0 3.0 0.00 0.00 0.00 81 1013.9
20260502040003 57 45 2.0 4.0 0.00 0.00 0.00 80 1013.8
20260502035504 57 45 1.0 4.0 0.00 0.00 0.00 80 1013.7
20260502035004 57 45 2.0 5.0 0.00 0.00 0.00 80 1013.7
20260502034503 57 45 2.0 4.0 0.00 0.00 0.00 79 1013.5
20260502034003 57 45 2.0 5.0 0.00 0.00 0.00 79 1013.5
20260502033524 57 45 1.0 4.0 0.00 0.00 0.00 78 1013.4
20260502033003 58 45 2.0 4.0 0.00 0.00 0.00 78 1013.3
20260502032504 58 45 2.0 4.0 0.00 0.00 0.00 78 1013.2
20260502032003 58 338 2.0 7.0 0.00 0.00 0.00 77 1013.2
20260502031504 58 45 2.0 5.0 0.00 0.00 0.00 77 1013.1
20260502031004 59 0 2.0 7.0 0.00 0.00 0.00 76 1013.1
20260502030504 59 0 1.0 5.0 0.00 0.00 0.00 76 1013.0
20260502030003 59 45 2.0 4.0 0.00 0.00 0.00 75 1012.9
20260502025544 60 45 2.0 4.0 0.00 0.00 0.00 75 1012.9
20260502025003 60 338 1.0 4.0 0.00 0.00 0.00 74 1012.7
20260502024544 60 45 2.0 5.0 0.00 0.00 0.00 73 1012.8
20260502024003 60 338 2.0 5.0 0.00 0.00 0.00 73 1012.7
20260502023504 61 45 2.0 6.0 0.00 0.00 0.00 72 1012.7
20260502023003 61 45 2.0 8.0 0.00 0.00 0.00 72 1012.7
20260502022523 61 45 3.0 8.0 0.00 0.00 0.00 72 1012.6
20260502022043 61 45 3.0 7.0 0.00 0.00 0.00 72 1012.6
20260502021523 62 45 3.0 7.0 0.00 0.00 0.00 72 1012.6
20260502021003 62 45 3.0 7.0 0.00 0.00 0.00 72 1012.6